Location: DARK SKY Beskydy - Park tmavé oblohy, www.darkskybeskydy.cz
(49.4926°N, 18.5016°E)
Time: 02:37:12
(UTC+02:00)

A-11 Canister half - Pass Details

Date: 23 February 2024
Orbit: 1513 x 1686 km, 47.2° (Epoch: 24 April)

Event Time Altitude Azimuth Distance (km) Brightness Sun altitude
Rises 08:25:31 0° 289° (WNW) 4,875 11.0 14.4°
Reaches altitude 10° 08:28:57 10° 282° (WNW) 3,862 10.6 14.9°
Maximum altitude 08:37:41 38° 219° (SW) 2,247 10.1 16.0°
Drops below altitude 10° 08:46:07 10° 155° (SSE) 3,727 12.4 17.1°
Sets 08:49:24 0° 148° (SSE) 4,688 13.0 17.5°
